• Em Portugal
  • Lista de países
  • Para 7 dias
  • Temperatura da água
  • Mapas de satélite
  • Mapa do tempo
  • Widgets de tempo
  • user-avatar
    Iniciar Sessão

    Previsão horária em Osaka

    Hoje, 20 Setembro, Quinta-feira

    Tempo Temperatura Precipitação Vento Pressão Humidade
    00:00 +23°C° 0 mm 2 m/s 760 mmHg 55%
    01:00 +23°C° 0 mm 1 m/s 760 mmHg 57%
    02:00 +23°C° 0 mm 1 m/s 759 mmHg 59%
    03:00 +23°C° 0 mm 1 m/s 759 mmHg 60%
    04:00 +23°C° 0.2 mm 1 m/s 759 mmHg 63%
    05:00 +23°C° 0.2 mm 1 m/s 759 mmHg 66%
    06:00 +23°C° 0.2 mm 1 m/s 759 mmHg 69%
    07:00 +23°C° 0.7 mm 1 m/s 759 mmHg 72%
    08:00 +23°C° 0.7 mm 1 m/s 759 mmHg 76%
    09:00 +23°C° 0 mm 1 m/s 759 mmHg 80%
    10:00 +23°C° 2.1 mm 2 m/s 759 mmHg 82%
    11:00 +23°C° 2.1 mm 2 m/s 759 mmHg 84%
    12:00 +24°C° 2.1 mm 2 m/s 758 mmHg 86%
    13:00 +24°C° 3.8 mm 2 m/s 758 mmHg 87%
    14:00 +24°C° 3.8 mm 2 m/s 758 mmHg 88%
    15:00 +23°C° 0 mm 2 m/s 757 mmHg 88%
    16:00 +23°C° 2.5 mm 2 m/s 757 mmHg 89%
    17:00 +23°C° 2.5 mm 2 m/s 757 mmHg 89%
    18:00 +23°C° 2.5 mm 2 m/s 757 mmHg 89%
    19:00 +23°C° 0.7 mm 2 m/s 757 mmHg 88%
    20:00 +23°C° 0.7 mm 2 m/s 757 mmHg 88%
    21:00 +23°C° 0.7 mm 2 m/s 757 mmHg 88%
    22:00 +23°C° 0.5 mm 2 m/s 757 mmHg 88%
    23:00 +23°C° 0.5 mm 2 m/s 757 mmHg 88%

    Amanhã, 21 Setembro, Sexta-feira

    Tempo Temperatura Precipitação Vento Pressão Humidade
    00:00 +23°C° 0.5 mm 2 m/s 757 mmHg 88%
    01:00 +23°C° 0.4 mm 2 m/s 757 mmHg 88%
    02:00 +23°C° 0.4 mm 2 m/s 757 mmHg 88%
    03:00 +23°C° 0.4 mm 2 m/s 757 mmHg 89%
    04:00 +23°C° 0.3 mm 2 m/s 757 mmHg 89%
    05:00 +23°C° 0.3 mm 2 m/s 757 mmHg 89%
    06:00 +24°C° 0.3 mm 2 m/s 757 mmHg 89%
    07:00 +24°C° 0.1 mm 2 m/s 757 mmHg 88%
    08:00 +25°C° 0.1 mm 2 m/s 757 mmHg 86%
    09:00 +25°C° 0.1 mm 2 m/s 757 mmHg 85%
    10:00 +27°C° 0.1 mm 2 m/s 757 mmHg 81%
    11:00 +28°C° 0.1 mm 2 m/s 757 mmHg 77%
    12:00 +29°C° 0.1 mm 2 m/s 757 mmHg 74%
    13:00 +29°C° 0.3 mm 2 m/s 757 mmHg 75%
    14:00 +29°C° 0.3 mm 2 m/s 757 mmHg 76%
    15:00 +28°C° 0.3 mm 2 m/s 757 mmHg 77%
    16:00 +28°C° 0.8 mm 2 m/s 757 mmHg 78%
    17:00 +27°C° 0.8 mm 2 m/s 757 mmHg 80%
    18:00 +27°C° 0.8 mm 3 m/s 757 mmHg 82%
    19:00 +27°C° 0.6 mm 3 m/s 757 mmHg 83%
    20:00 +27°C° 0.6 mm 3 m/s 757 mmHg 84%
    21:00 +27°C° 0.6 mm 3 m/s 757 mmHg 85%
    22:00 +26°C° 0.4 mm 2 m/s 757 mmHg 86%
    23:00 +26°C° 0.4 mm 2 m/s 757 mmHg 87%

    Depois de amanhã, 22 Setembro, Sábado

    Tempo Temperatura Precipitação Vento Pressão Humidade
    00:00 +26°C° 0.4 mm 2 m/s 756 mmHg 88%
    01:00 +26°C° 0.5 mm 2 m/s 756 mmHg 89%
    02:00 +26°C° 0.5 mm 2 m/s 756 mmHg 90%
    03:00 +26°C° 0.5 mm 2 m/s 756 mmHg 91%
    04:00 +26°C° 0.8 mm 2 m/s 756 mmHg 91%
    05:00 +26°C° 0.8 mm 1 m/s 756 mmHg 91%
    06:00 +26°C° 0.8 mm 1 m/s 756 mmHg 91%
    07:00 +27°C° 0.5 mm 2 m/s 757 mmHg 87%
    08:00 +28°C° 0.5 mm 3 m/s 757 mmHg 83%
    09:00 +29°C° 0.5 mm 4 m/s 757 mmHg 78%
    10:00 +29°C° 0.3 mm 4 m/s 758 mmHg 77%
    11:00 +29°C° 0.3 mm 4 m/s 758 mmHg 75%
    12:00 +29°C° 0.3 mm 3 m/s 758 mmHg 73%
    13:00 +30°C° 0 mm 3 m/s 758 mmHg 70%
    14:00 +30°C° 0 mm 3 m/s 758 mmHg 67%
    15:00 +30°C° 0 mm 3 m/s 758 mmHg 63%
    16:00 +29°C° 0 mm 3 m/s 758 mmHg 67%
    17:00 +28°C° 0 mm 2 m/s 759 mmHg 71%
    18:00 +26°C° 0 mm 2 m/s 759 mmHg 75%
    19:00 +26°C° 0 mm 2 m/s 760 mmHg 76%
    20:00 +25°C° 0 mm 2 m/s 760 mmHg 78%
    21:00 +24°C° 0 mm 2 m/s 760 mmHg 79%
    22:00 +24°C° 0 mm 2 m/s 760 mmHg 79%
    23:00 +24°C° 0 mm 2 m/s 760 mmHg 79%

    23 Setembro, Domingo

    Tempo Temperatura Precipitação Vento Pressão Humidade
    00:00 +23°C° 0 mm 1 m/s 760 mmHg 79%
    01:00 +23°C° 0 mm 2 m/s 760 mmHg 79%
    02:00 +23°C° 0 mm 2 m/s 761 mmHg 79%
    03:00 +23°C° 0 mm 2 m/s 761 mmHg 80%
    04:00 +22°C° 0 mm 1 m/s 761 mmHg 80%
    05:00 +22°C° 0 mm 1 m/s 761 mmHg 80%
    06:00 +22°C° 0 mm 1 m/s 761 mmHg 80%
    07:00 +24°C° 0 mm 1 m/s 761 mmHg 72%
    08:00 +26°C° 0 mm 1 m/s 761 mmHg 65%
    09:00 +28°C° 0 mm 1 m/s 761 mmHg 57%
    10:00 +29°C° 0 mm 1 m/s 761 mmHg 51%
    11:00 +30°C° 0 mm 1 m/s 761 mmHg 45%
    12:00 +32°C° 0 mm 1 m/s 761 mmHg 39%
    13:00 +32°C° 0 mm 1 m/s 760 mmHg 38%
    14:00 +32°C° 0 mm 1 m/s 760 mmHg 38%
    15:00 +32°C° 0 mm 2 m/s 760 mmHg 38%
    16:00 +31°C° 0 mm 2 m/s 760 mmHg 42%
    17:00 +29°C° 0 mm 2 m/s 760 mmHg 46%
    18:00 +28°C° 0 mm 2 m/s 760 mmHg 50%
    19:00 +27°C° 0 mm 2 m/s 761 mmHg 51%
    20:00 +27°C° 0 mm 1 m/s 761 mmHg 51%
    21:00 +27°C° 0 mm 1 m/s 761 mmHg 51%
    22:00 +26°C° 0 mm 1 m/s 761 mmHg 51%
    23:00 +26°C° 0 mm 1 m/s 761 mmHg 51%

    24 Setembro, Segunda-feira

    Tempo Temperatura Precipitação Vento Pressão Humidade
    00:00 +26°C° 0 mm 1 m/s 761 mmHg 51%
    01:00 +26°C° 0 mm 1 m/s 761 mmHg 52%
    02:00 +25°C° 0 mm 1 m/s 760 mmHg 53%
    03:00 +25°C° 0 mm 1 m/s 760 mmHg 53%
    04:00 +25°C° 0 mm 1 m/s 760 mmHg 55%
    05:00 +24°C° 0 mm 2 m/s 760 mmHg 57%
    06:00 +24°C° 0 mm 2 m/s 760 mmHg 59%
    07:00 +25°C° 0.1 mm 2 m/s 761 mmHg 59%
    08:00 +25°C° 0.1 mm 2 m/s 761 mmHg 59%
    09:00 +26°C° 0.1 mm 3 m/s 761 mmHg 59%
    10:00 +25°C° 0.5 mm 2 m/s 761 mmHg 61%
    11:00 +25°C° 0.5 mm 2 m/s 761 mmHg 64%
    12:00 +25°C° 0.5 mm 2 m/s 760 mmHg 66%
    13:00 +25°C° 0.6 mm 2 m/s 760 mmHg 68%
    14:00 +24°C° 0.6 mm 1 m/s 760 mmHg 70%
    15:00 +24°C° 0.6 mm 1 m/s 760 mmHg 72%
    16:00 +24°C° 0.1 mm 1 m/s 760 mmHg 72%
    17:00 +24°C° 0.1 mm 1 m/s 760 mmHg 73%
    18:00 +24°C° 0.1 mm 1 m/s 760 mmHg 73%
    19:00 +24°C° 0 mm 1 m/s 760 mmHg 74%
    20:00 +23°C° 0 mm 1 m/s 760 mmHg 75%
    21:00 +23°C° 0 mm 1 m/s 761 mmHg 75%
    22:00 +23°C° 0.2 mm 1 m/s 760 mmHg 76%
    23:00 +23°C° 0.2 mm 1 m/s 760 mmHg 77%

    25 Setembro, Terça-feira

    Tempo Temperatura Precipitação Vento Pressão Humidade
    00:00 +23°C° 0.2 mm 1 m/s 760 mmHg 78%
    01:00 +23°C° 0.4 mm 1 m/s 760 mmHg 79%
    02:00 +23°C° 0.4 mm 1 m/s 759 mmHg 80%
    03:00 +23°C° 0.4 mm 1 m/s 759 mmHg 81%
    04:00 +23°C° 0.4 mm 1 m/s 759 mmHg 82%
    05:00 +23°C° 0.4 mm 1 m/s 759 mmHg 83%
    06:00 +23°C° 0.4 mm 2 m/s 759 mmHg 84%
    07:00 +23°C° 1.7 mm 1 m/s 760 mmHg 85%
    08:00 +23°C° 1.7 mm 1 m/s 760 mmHg 86%
    09:00 +23°C° 1.7 mm 1 m/s 760 mmHg 87%
    10:00 +23°C° 2.5 mm 1 m/s 760 mmHg 87%
    11:00 +23°C° 2.5 mm 1 m/s 760 mmHg 88%
    12:00 +23°C° 2.5 mm 1 m/s 759 mmHg 88%
    13:00 +23°C° 1.7 mm 1 m/s 759 mmHg 89%
    14:00 +23°C° 1.7 mm 1 m/s 759 mmHg 89%
    15:00 +23°C° 1.7 mm 1 m/s 759 mmHg 89%
    16:00 +23°C° 0.9 mm 1 m/s 759 mmHg 89%
    17:00 +23°C° 0.9 mm 1 m/s 759 mmHg 89%
    18:00 +23°C° 0.9 mm 1 m/s 759 mmHg 89%
    19:00 +23°C° 0.3 mm 1 m/s 760 mmHg 88%
    20:00 +23°C° 0.3 mm 1 m/s 760 mmHg 86%
    21:00 +23°C° 0.3 mm 1 m/s 760 mmHg 85%
    22:00 +23°C° 0 mm 1 m/s 760 mmHg 85%
    23:00 +21°C° 0 mm 2 m/s 759 mmHg 85%
    Mostrar mais